User: anonymous   Login
Location: Bannatyne
(13.0833°N, 59.5333°W)
Time: 03:57:26
(UTC+00:00)
Language:

A-11 Canister half - Orbit

View from above orbital plane
View from above orbital plane
View from above satellite
View from above satellite

Ground track
Ground track

The orbit data is extracted from the following two-line orbital elements,

1    51U 60009C   20027.48353306 -.00000110  00000-0 -23125-3 0  9994
2    51  47.2138  66.6348 0104282 102.1699 259.0792 12.18270930646778
Epoch (UTC): 27 January 2020 11:36:17
Eccentricity: 0.0104282
inclination: 47.2138°
perigee height: 1517 km
apogee height: 1683 km
right ascension of ascending node: 66.6348°
argument of perigee: 102.1699°
revolutions per day: 12.18270930
mean anomaly at epoch: 259.0792°
orbit number at epoch: 64677

The dashed part of the orbit path shows where the satellite is in the earth's shadow,  

DLR